Moses Lake, Washington, United States (98837)
Lat: 47.13N, Lon: 119.28W
Wx Zone: WAZ034
Local Info
Past Weather Observations for Friday, September 26, 2014

NOTE: This archive is for the closest National Weather Service station to Moses Lake. Information may differ from the station used for current weather conditions.

Click here for Long-term Archive

Time Weather Temperature Dewpoint Humidity Pressure Winds Precip Visibility
23:52
Clear
48°F / 9°C 46°F / 8°C 94% 30.04 in
(1017 mb)
N 5.8 mph
(N 9 kph)
- 10SM
22:52
Clear
52°F / 11°C 48°F / 9°C 88% 30.06 in
(1018 mb)
NNE 3.5 mph
(NNE 6 kph)
- 10SM
21:52
Clear
54°F / 12°C 48°F / 9°C 82% 30.06 in
(1018 mb)
N 4.6 mph
(N 7 kph)
- 10SM
20:52
Clear
55°F / 13°C 52°F / 11°C 88% 30.04 in
(1017 mb)
N 4.6 mph
(N 7 kph)
- 10SM
19:52
Clear
61°F / 16°C 52°F / 11°C 72% 30.04 in
(1017 mb)
Calm - 10SM
18:52
Clear
63°F / 17°C 52°F / 11°C 68% 30.04 in
(1017 mb)
N 3.5 mph
(N 6 kph)
- 10SM
17:52
Partly Cloudy
66°F / 19°C 48°F / 9°C 52% 30.04 in
(1017 mb)
Calm - 10SM
16:52
Partly Cloudy
70°F / 21°C 48°F / 9°C 46% 30.04 in
(1017 mb)
Calm - 10SM
15:52
Clear
70°F / 21°C 48°F / 9°C 46% 30.04 in
(1017 mb)
W 3.5 mph
(W 6 kph)
- 10SM
14:52
Clear
72°F / 22°C 48°F / 9°C 44% 30.04 in
(1017 mb)
SSW 6.9 mph
(SSW 11 kph)
- 10SM
13:52
Partly Cloudy
70°F / 21°C 52°F / 11°C 53% 30.04 in
(1017 mb)
SSE 4.6 mph
(SSE 7 kph)
- 10SM
12:52
Partly Cloudy
66°F / 19°C 54°F / 12°C 64% 30.04 in
(1017 mb)
S 3.5 mph
(S 6 kph)
- 10SM
11:52
Clear
63°F / 17°C 54°F / 12°C 73% 30.04 in
(1017 mb)
W 5.8 mph
(W 9 kph)
- 9SM
10:52
Partly Cloudy
61°F / 16°C 54°F / 12°C 77% 30.04 in
(1017 mb)
SSW 5.8 mph
(SSW 9 kph)
- 7SM
10:34
Partly Cloudy
Hazy
57°F / 14°C 54°F / 12°C 88% 30.04 in
(1017 mb)
Calm - 5SM
10:28
Mostly Cloudy
Hazy
57°F / 14°C 54°F / 12°C 88% 30.04 in
(1017 mb)
NW 3.5 mph
(NW 6 kph)
- 2 1/2SM
10:02
Overcast
Fog And Mist
54°F / 12°C 54°F / 12°C 100% 30.04 in
(1017 mb)
Calm - 1 1/2SM
09:55
Overcast
Fog And Mist
54°F / 12°C 54°F / 12°C 100% 30.04 in
(1017 mb)
Calm - 2SM
09:52
Overcast
Fog
54°F / 12°C 54°F / 12°C 100% 30.04 in
(1017 mb)
WNW 3.5 mph
(WNW 6 kph)
- 1/2SM
08:52
Obscured
Fog
52°F / 11°C 52°F / 11°C 100% 30.01 in
(1016 mb)
Calm - 1/4SM
08:12
Obscured
Fog
52°F / 11°C 52°F / 11°C 100% 30.01 in
(1016 mb)
NNW 4.6 mph
(NNW 7 kph)
- 1/4SM
07:52
Obscured
Fog
52°F / 11°C 50°F / 10°C 94% 30.01 in
(1016 mb)
Calm - 1/4SM
06:52
Obscured
Fog
50°F / 10°C 48°F / 9°C 94% 30.01 in
(1016 mb)
Calm - M1/4SM
06:02
Obscured
Fog
48°F / 9°C 46°F / 8°C 94% 29.98 in
(1015 mb)
Calm - 1/4SM
05:52
Obscured
Fog And Mist
46°F / 8°C 46°F / 8°C 100% 29.98 in
(1015 mb)
Calm - 3/4SM
05:25
Obscured
Fog And Mist
46°F / 8°C 45°F / 7°C 93% 29.98 in
(1015 mb)
Calm - 3/4SM
04:52
Mostly Cloudy
45°F / 7°C 45°F / 7°C 100% 29.98 in
(1015 mb)
Calm - 8SM
04:48
Mostly Cloudy
45°F / 7°C 45°F / 7°C 100% 29.98 in
(1015 mb)
Calm - 7SM
04:29
Partly Cloudy
Fog And Mist
45°F / 7°C 45°F / 7°C 100% 29.95 in
(1014 mb)
Calm - 5SM
04:21
Mostly Cloudy
Fog And Mist
45°F / 7°C 45°F / 7°C 100% 29.95 in
(1014 mb)
Calm - 3SM
04:14
Mostly Cloudy
Fog And Mist
45°F / 7°C 45°F / 7°C 100% 29.95 in
(1014 mb)
Calm - 2SM
04:07
Obscured
Fog
45°F / 7°C 45°F / 7°C 100% 29.95 in
(1014 mb)
NNE 3.5 mph
(NNE 6 kph)
- 1/2SM
03:59
Mostly Cloudy
Fog And Mist
45°F / 7°C 43°F / 6°C 93% 29.95 in
(1014 mb)
N 3.5 mph
(N 6 kph)
- 1 1/2SM
03:52
Mostly Cloudy
Fog And Mist
45°F / 7°C 43°F / 6°C 93% 29.95 in
(1014 mb)
NNW 5.8 mph
(NNW 9 kph)
- 3SM
03:26
Mostly Cloudy
Fog And Mist
45°F / 7°C 45°F / 7°C 100% 29.95 in
(1014 mb)
N 5.8 mph
(N 9 kph)
- 6SM
02:52
Mostly Cloudy
46°F / 8°C 46°F / 8°C 100% 29.95 in
(1014 mb)
Calm - 8SM
02:50
Mostly Cloudy
48°F / 9°C 46°F / 8°C 94% 29.95 in
(1014 mb)
Calm - 8SM
02:41
Partly Cloudy
46°F / 8°C 46°F / 8°C 100% 29.95 in
(1014 mb)
Calm - 8SM
01:52
Clear
46°F / 8°C 45°F / 7°C 93% 29.95 in
(1014 mb)
Calm - 8SM
00:52
Clear
48°F / 9°C 46°F / 8°C 94% 29.92 in
(1013 mb)
Calm - 8SM
Time Weather Temperature Dewpoint Humidity Pressure Winds Precip Visibility


Weather for websites

WeatherForYou.com, LLC is not responsible for any damages or problems caused by this service. Current weather conditions are obtained from the closest station including government and personal stations which may have varying degrees of accuracy. Weather forecasts are derived from the NOAA NDFD. Like all things, this site belongs to Jesus Christ... He just trusts me to maintain it. If you have any questions or comments email webmaster@weatherforyou.com

Copyright © 2014, WeatherForYou.com LLC. All rights reserved.